I1GXV Weather Reports


Display with metric or nautical units.
time (UTC)temp
F
wind
direction
speed
MPH
gust
MPH
rain 1hr
in
rain 24hr
in
rain mn
in
humidity
%
barometer
mb
20260506200010 56 26 3.0 8.0 0.00 0.66 0.66 89 984.7
20260506193010 55 58 2.0 6.0 0.00 0.66 0.66 90 984.6
20260506190014 55 34 2.0 9.0 0.00 0.67 0.66 90 984.0
20260506173009 57 306 2.0 6.0 0.00 0.74 0.65 79 982.7
20260506170011 59 47 3.0 13.0 0.00 0.79 0.65 71 982.4
20260506163011 59 31 8.0 20.0 0.00 0.84 0.65 70 982.0
20260506153008 60 50 13.0 23.0 0.00 0.88 0.65 68 981.8
20260506150012 60 46 13.0 22.0 0.00 0.88 0.65 69 981.9
20260506140009 58 50 9.0 21.0 0.00 0.88 0.65 78 982.1
20260506133011 59 46 9.0 17.0 0.00 0.88 0.65 73 982.6
20260506130015 56 56 6.0 13.0 0.00 0.88 0.65 84 982.3
20260506123012 53 40 6.0 18.0 0.31 0.88 0.65 94 982.5
20260506120018 53 297 4.0 20.0 0.31 0.88 0.65 92 982.0
20260506113014 60 210 5.0 24.0 0.00 0.58 0.34 85 981.8
20260506110010 60 146 13.0 23.0 0.00 0.60 0.34 85 981.4
20260506103009 58 158 5.0 17.0 0.00 0.60 0.34 90 981.9
20260506100009 58 146 10.0 23.0 0.00 0.62 0.34 89 982.0
20260506093010 57 136 13.0 23.0 0.00 0.62 0.34 94 981.8
20260506090009 56 139 11.0 21.0 0.00 0.62 0.34 97 981.7
20260506083011 55 141 17.0 24.0 0.00 0.64 0.34 99 982.0
20260506073010 55 85 9.0 14.0 0.00 0.66 0.34 99 982.4
20260506043007 54 55 5.0 8.0 0.20 0.99 0.27 99 983.3
20260506040008 54 26 2.0 5.0 0.00 0.81 0.07 99 983.3
20260506033007 53 26 2.0 7.0 0.01 0.81 0.07 99 983.4
20260506030006 53 33 3.0 6.0 0.01 0.81 0.07 99 983.8
20260506023012 54 33 3.0 7.0 0.00 0.80 0.06 99 984.6
20260506020011 53 30 1.0 5.0 0.00 0.80 0.06 99 984.8
20260506013012 53 29 2.0 6.0 0.00 0.80 0.06 99 984.6
20260506003010 53 21 2.0 3.0 0.00 0.80 0.06 99 985.5
20260506000008 53 29 0.0 2.0 0.02 0.80 0.06 99 985.6
20260505233011 53 27 1.0 2.0 0.05 0.80 0.06 99 986.1
20260505223015 53 24 2.0 5.0 0.01 0.75 0.01 99 986.4
20260505220012 53 28 1.0 6.0 0.00 0.74 0.00 99 986.6
20260505213010 53 38 2.0 6.0 0.00 0.74 0.74 99 986.9
20260505210011 53 33 3.0 7.0 0.00 0.74 0.74 99 986.9
20260505203009 53 35 4.0 8.0 0.00 0.74 0.74 99 987.1